Tracking 29892 objects as of 21-Nov-2024
HD Live streaming from Space Station
objects crossing your sky now

STARLINK-30352

Track STARLINK-30352 now!
10-day predictions
STARLINK-30352 is classified as:


NORAD ID: 57736
Int'l Code: 2023-131E
Perigee: 565.4 km
Apogee: 567.1 km
Inclination: 43.0 °
Period: 95.8 minutes
Semi major axis: 6937 km
RCS: Unknown
Launch date: September 1, 2023
Source: United States (US)
Launch site: AIR FORCE EASTERN TEST RANGE (AFETR)
Your satellite tracking list
Your tracking list is empty




NASA's NSSDC Master Catalog

Two Line Element Set (TLE):
1 57736U 23131E   24326.13706293  .00006258  00000-0  47809-3 0  9998
2 57736  43.0000 224.5915 0001244 252.6534 107.4172 15.02519517 68588
Source of the keplerian elements: AFSPC